Weather History for South Haven, MI

Change the Weather History Date:

Thursday, January 24, 2013

  Actual Average (KBIV) Record (KBIV)
Temperature  
Mean Temperature 12 °F 26 °F  
Max Temperature 17 °F 32 °F 57 °F (1967)
Min Temperature 6 °F 19 °F -10 °F (1970)
Degree Days  
Heating Degree Days 54 39  
Month to date heating degree days 927  
Since 1 July heating degree days 3195  
Cooling Degree Days 0 0  
Month to date cooling degree days 0  
Year to date cooling degree days 0  
Moisture  
Dew Point 3 °F    
Average Humidity 65    
Maximum Humidity 89    
Minimum Humidity 42    
Precipitation  
Precipitation 0.00 in 0.06 in 0.65 in (1965)
Month to date precipitation 1.61  
Year to date precipitation 1.61  
Sea Level Pressure  
Sea Level Pressure 30.47 in    
Wind  
Wind Speed 7 mph (East)    
Max Wind Speed 18 mph    
Max Gust Speed 25 mph    
Visibility 10 miles    
Events Snow    
T = Trace of Precipitation, MM = Missing Value Source: NWS Daily Summary

Daily Weather History Graph

Daily Weather History Graph

Search for Another Location

Airport:

Trip Planner

Search our weather history database for the weather conditions in past years. The results will help you decide how hot, cold, wet, or windy it might be!

Date:

Astronomy

Jan. 24, 2013 Rise Set
Actual Time 8:05 AM EST 5:49 PM EST
Civil Twilight 7:35 AM EST 6:19 PM EST
Nautical Twilight 7:01 AM EST 6:53 PM EST
Astronomical Twilight 6:28 AM EST 7:26 PM EST
Moon 3:50 PM EST (1/24) 6:03 AM EST (1/24)
Length of Visible Light 10h 44m
Length of Day
9h 43m
Waxing Gibbous, 94% of the Moon is Illuminated
Jan 24
Waxing Gibbous
Jan 26
Full
Feb 3
Last Quarter
Feb 10
New
Feb 17
First Quarter

Hourly Weather History & Observations

Time (EST) Temp. Windchill Dew Point Humidity Pressure Visibility Wind Dir Wind Speed Gust Speed Precip Events Conditions
12:14 AM 14.7 °F -2.0 °F 12.0 °F 89% 30.20 in - NNE 18.4 mph 25.3 mph N/A   Overcast
12:35 AM 14.5 °F 1.1 °F 11.5 °F 88% 30.21 in - NNE 11.5 mph 17.3 mph N/A   Overcast
12:55 AM 14.5 °F 1.9 °F 10.6 °F 84% 30.22 in - NNE 10.4 mph - N/A   Unknown
1:14 AM 14.9 °F 1.6 °F 8.8 °F 77% 30.24 in - North 11.5 mph - N/A   Overcast
1:35 AM 14.9 °F 3.1 °F 7.7 °F 73% 30.25 in - NNE 9.2 mph - N/A   Overcast
1:54 AM 13.5 °F 4.4 °F 6.1 °F 72% 30.26 in - NNE 5.8 mph - N/A   Mostly Cloudy
2:15 AM 13.6 °F 4.6 °F 6.4 °F 73% 30.27 in - NNE 5.8 mph - N/A   Overcast
2:34 AM 12.6 °F 1.1 °F 5.7 °F 74% 30.29 in - NNE 8.1 mph - N/A   Overcast
2:55 AM 12.0 °F 2.7 °F 5.4 °F 75% 30.30 in - NE 5.8 mph - N/A   Overcast
3:15 AM 13.5 °F - 6.8 °F 75% 30.31 in - Calm Calm - N/A   Overcast
3:34 AM 13.3 °F 3.0 °F 8.1 °F 80% 30.32 in 1.5 mi NE 6.9 mph - N/A Snow Light Snow
3:55 AM 13.8 °F 4.9 °F 10.9 °F 88% 30.33 in 1.2 mi NE 5.8 mph - N/A Snow Light Snow
4:14 AM 14.2 °F 1.4 °F 10.0 °F 84% 30.33 in 4.0 mi NNE 10.4 mph - N/A Snow Light Snow
4:35 AM 14.0 °F 3.9 °F 10.4 °F 86% 30.35 in 3.0 mi NE 6.9 mph - N/A Snow Light Snow
4:54 AM 13.1 °F 0.1 °F 7.9 °F 80% 30.36 in 10.0 mi NNE 10.4 mph - N/A   Scattered Clouds
5:15 AM 12.2 °F -1.8 °F 7.3 °F 81% 30.38 in 10.0 mi NE 11.5 mph - N/A   Clear
5:35 AM 11.7 °F 1.1 °F 7.7 °F 84% 30.40 in 10.0 mi NE 6.9 mph - N/A   Clear
5:54 AM 11.1 °F -1.6 °F 7.0 °F 83% 30.42 in 10.0 mi NE 9.2 mph - N/A   Clear
6:15 AM 9.3 °F -1.7 °F 5.7 °F 85% 30.43 in 10.0 mi NE 6.9 mph - N/A   Clear
6:34 AM 9.3 °F -2.8 °F 5.7 °F 85% 30.45 in 10.0 mi NE 8.1 mph - N/A   Clear
6:55 AM 9.5 °F -3.5 °F 5.4 °F 83% 30.47 in 10.0 mi NE 9.2 mph - N/A   Clear
7:15 AM 8.6 °F -2.6 °F 4.5 °F 83% 30.48 in 10.0 mi NE 6.9 mph - N/A   Clear
7:34 AM 8.2 °F -1.8 °F 3.7 °F 82% 30.50 in 10.0 mi ENE 5.8 mph - N/A   Clear
7:55 AM 7.2 °F 0.3 °F 3.2 °F 84% 30.50 in 10.0 mi ENE 3.5 mph - N/A   Clear
8:14 AM 6.6 °F - 2.8 °F 84% 30.51 in 10.0 mi Calm Calm - N/A   Clear
8:35 AM 6.4 °F -0.5 °F 2.3 °F 83% 30.52 in 10.0 mi ENE 3.5 mph - N/A   Clear
8:54 AM 6.8 °F -2.0 °F 2.3 °F 82% 30.53 in 10.0 mi East 4.6 mph - N/A   Clear
9:15 AM 7.5 °F -1.1 °F 2.5 °F 80% 30.54 in 10.0 mi East 4.6 mph - N/A   Clear
9:34 AM 8.1 °F -2.0 °F 2.8 °F 79% 30.56 in 10.0 mi ENE 5.8 mph - N/A   Clear
9:55 AM 8.4 °F -0.1 °F 3.0 °F 79% 30.58 in 10.0 mi ENE 4.6 mph - N/A   Clear
10:15 AM 9.5 °F 1.2 °F 3.2 °F 76% 30.59 in 10.0 mi East 4.6 mph - N/A   Clear
10:34 AM 10.4 °F -1.5 °F 3.2 °F 73% 30.60 in 10.0 mi East 8.1 mph - N/A   Clear
10:55 AM 11.1 °F 0.4 °F 2.7 °F 69% 30.60 in 10.0 mi East 6.9 mph - N/A   Clear
11:14 AM 12.4 °F 2.0 °F 2.5 °F 65% 30.61 in 10.0 mi East 6.9 mph - N/A   Clear
11:35 AM 13.5 °F 2.2 °F 0.7 °F 57% 30.60 in 10.0 mi East 8.1 mph - N/A   Clear
11:55 AM 14.2 °F 4.1 °F 1.4 °F 57% 30.60 in 10.0 mi ESE 6.9 mph - N/A   Clear
12:14 PM 14.7 °F 4.8 °F 0.9 °F 54% 30.60 in 10.0 mi East 6.9 mph - N/A   Clear
12:35 PM 14.9 °F 9.2 °F 0.1 °F 52% 30.59 in 10.0 mi ESE 3.5 mph - N/A   Clear
12:54 PM 15.3 °F 6.6 °F -1.1 °F 48% 30.59 in 10.0 mi ESE 5.8 mph - N/A   Clear
1:15 PM 15.6 °F 7.0 °F -0.4 °F 49% 30.58 in 10.0 mi East 5.8 mph - N/A   Clear
1:34 PM 15.8 °F 10.2 °F -1.5 °F 47% 30.57 in 10.0 mi ESE 3.5 mph - N/A   Clear
1:55 PM 16.2 °F 9.0 °F -2.0 °F 45% 30.57 in 10.0 mi SE 4.6 mph - N/A   Clear
2:15 PM 16.3 °F 6.7 °F -2.2 °F 44% 30.57 in 10.0 mi SE 6.9 mph - N/A   Clear
2:34 PM 16.5 °F 9.4 °F -1.8 °F 44% 30.56 in 10.0 mi ESE 4.6 mph - N/A   Clear
2:55 PM 16.9 °F 8.5 °F -2.6 °F 42% 30.55 in 10.0 mi SE 5.8 mph - N/A   Clear
3:15 PM 16.9 °F 8.5 °F -2.7 °F 42% 30.54 in 10.0 mi SE 5.8 mph - N/A   Clear
3:34 PM 16.9 °F 7.4 °F -2.4 °F 43% 30.55 in 10.0 mi ESE 6.9 mph - N/A   Clear
3:55 PM 17.1 °F 10.0 °F -1.7 °F 44% 30.55 in 10.0 mi ESE 4.6 mph - N/A   Clear
4:14 PM 17.1 °F 8.7 °F -1.1 °F 45% 30.55 in 10.0 mi ESE 5.8 mph - N/A   Clear
4:35 PM 16.7 °F 11.2 °F -0.4 °F 47% 30.55 in 10.0 mi SSE 3.5 mph - N/A   Clear
4:55 PM 16.9 °F - -0.6 °F 46% 30.55 in 10.0 mi Calm Calm - N/A   Clear
5:15 PM 16.7 °F - 0.3 °F 49% 30.55 in 10.0 mi Calm Calm - N/A   Clear
5:35 PM 16.2 °F - 0.3 °F 50% 30.55 in 10.0 mi Calm Calm - N/A   Clear
5:54 PM 15.8 °F - 1.0 °F 52% 30.55 in 10.0 mi Calm Calm - N/A   Clear
6:15 PM 15.6 °F - 1.2 °F 53% 30.54 in 10.0 mi Calm Calm - N/A   Clear
6:35 PM 14.5 °F - 3.2 °F 61% 30.53 in 10.0 mi Calm Calm - N/A   Clear
6:54 PM 14.2 °F - 3.0 °F 61% 30.52 in 10.0 mi Calm Calm - N/A   Clear
7:15 PM 14.5 °F - 2.5 °F 59% 30.52 in 10.0 mi Calm Calm - N/A   Clear
7:34 PM 14.0 °F - 4.6 °F 66% 30.52 in 10.0 mi Calm Calm - N/A   Clear
7:55 PM 14.7 °F 9.0 °F 2.3 °F 58% 30.51 in 10.0 mi East 3.5 mph - N/A   Clear
8:15 PM 14.9 °F - 1.6 °F 56% 30.50 in 10.0 mi Calm Calm - N/A   Clear
8:34 PM 14.7 °F 9.0 °F 1.6 °F 56% 30.48 in 10.0 mi ESE 3.5 mph - N/A   Scattered Clouds
8:55 PM 14.9 °F 9.2 °F 0.5 °F 53% 30.48 in 10.0 mi SE 3.5 mph - N/A   Scattered Clouds
9:15 PM 14.9 °F - 1.0 °F 54% 30.48 in 10.0 mi Calm Calm - N/A   Mostly Cloudy
9:35 PM 14.9 °F - 1.2 °F 55% 30.48 in 10.0 mi Calm Calm - N/A   Overcast
9:55 PM 14.9 °F 9.2 °F 1.2 °F 55% 30.47 in 10.0 mi SE 3.5 mph - N/A   Overcast
10:14 PM 14.9 °F 7.5 °F 1.4 °F 55% 30.46 in 10.0 mi ESE 4.6 mph - N/A   Overcast
10:35 PM 14.9 °F 7.5 °F 1.8 °F 56% 30.45 in 10.0 mi ESE 4.6 mph - N/A   Overcast
10:55 PM 14.9 °F 6.1 °F 1.9 °F 57% 30.44 in 10.0 mi ESE 5.8 mph - N/A   Overcast
11:14 PM 15.3 °F 7.9 °F 0.9 °F 53% 30.45 in 10.0 mi SE 4.6 mph - N/A   Overcast
11:35 PM 15.1 °F 9.4 °F 0.7 °F 53% 30.43 in 10.0 mi SE 3.5 mph - N/A   Overcast
11:54 PM 15.3 °F 9.6 °F 0.9 °F 53% 30.43 in 10.0 mi SSE 3.5 mph - N/A   Overcast